EW7890 Weather Reports


Display with metric or nautical units.
time (UTC)temp
F
wind
direction
speed
MPH
gust
MPH
rain 1hr
in
rain 24hr
in
rain mn
in
humidity
%
barometer
mb
20191112143156 75 104 1.0 10.0 0.00 0.00 0.00 67 1018.2
20191112141836 75 270 1.0 7.0 0.00 0.00 0.00 69 1018.4
20191112140141 74 110 1.0 6.0 0.00 0.00 0.00 70 1018.5
20191112134650 74 290 1.0 9.0 0.00 0.00 0.00 69 1018.7
20191112133140 73 120 1.0 6.0 0.00 0.00 0.00 71 1018.7
20191112131604 73 127 1.0 7.0 0.00 0.00 0.00 71 1018.8
20191112130117 73 94 2.0 7.0 0.00 0.00 0.00 73 1018.7
20191112124626 72 126 0.0 4.0 0.00 0.00 0.00 74 1018.9
20191112123138 72 161 1.0 7.0 0.00 0.00 0.00 74 1018.8
20191112121602 71 102 2.0 7.0 0.00 0.00 0.00 74 1018.8
20191112120208 71 160 1.0 5.0 0.00 0.00 0.00 75 1018.7
20191112114643 70 115 0.0 7.0 0.00 0.00 0.00 76 1018.7
20191112113057 70 153 1.0 6.0 0.00 0.00 0.00 77 1018.7
20191112111615 69 168 0.0 5.0 0.00 0.00 0.00 77 1018.6
20191112110109 69 144 0.0 5.0 0.00 0.00 0.00 77 1018.5
20191112104545 69 103 1.0 8.0 0.00 0.00 0.00 78 1018.5
20191112103041 69 78 1.0 5.0 0.00 0.00 0.00 78 1018.4
20191112101618 69 85 1.0 6.0 0.00 0.00 0.00 79 1018.3
20191112100037 69 179 0.0 3.0 0.00 0.00 0.00 79 1018.4
20191112094612 68 90 0.0 3.0 0.00 0.00 0.00 79 1018.4
20191112093109 70 143 1.0 6.0 0.00 0.00 0.00 79 1018.6
20191112091537 70 121 1.0 6.0 0.00 0.00 0.00 79 1018.5
20191112090053 70 109 2.0 8.0 0.00 0.00 0.00 78 1018.5
20191112084532 69 112 1.0 8.0 0.00 0.00 0.00 79 1018.5
20191112083052 69 101 1.0 8.0 0.00 0.00 0.00 79 1018.5
20191112081556 69 110 1.0 9.0 0.00 0.00 0.00 80 1018.6
20191112080118 70 124 1.0 6.0 0.00 0.00 0.00 80 1018.7
20191112074551 70 147 2.0 10.0 0.00 0.00 0.00 79 1018.7
20191112073038 70 95 0.0 9.0 0.00 0.00 0.00 79 1018.8
20191112071528 70 168 1.0 8.0 0.00 0.00 0.00 79 1019.0
20191112070050 71 41 0.0 7.0 0.00 0.00 0.00 79 1019.2
20191112064607 70 114 0.0 6.0 0.00 0.00 0.00 78 1019.2
20191112063018 70 133 1.0 11.0 0.00 0.00 0.00 77 1019.4
20191112061515 70 155 1.0 9.0 0.00 0.00 0.00 77 1019.4
20191112060006 70 117 1.0 7.0 0.00 0.00 0.00 77 1019.6
20191112054510 70 139 1.0 6.0 0.00 0.00 0.00 76 1019.9
20191112053014 69 86 0.0 5.0 0.00 0.00 0.00 75 1020.0
20191112051727 70 122 0.0 4.0 0.00 0.00 0.00 74 1020.2
20191112050221 70 234 1.0 7.0 0.00 0.00 0.00 73 1020.4
20191112044720 70 135 1.0 7.0 0.00 0.00 0.00 74 1020.5
20191112043234 70 169 1.0 7.0 0.00 0.00 0.00 74 1020.7
20191112041644 69 266 0.0 5.0 0.00 0.00 0.00 75 1020.8
20191112040131 69 60 0.0 3.0 0.00 0.00 0.00 75 1020.9
20191112034653 69 119 0.0 8.0 0.00 0.00 0.00 75 1021.1
20191112033155 69 129 0.0 6.0 0.00 0.00 0.00 74 1021.2
20191112031638 68 107 0.0 6.0 0.00 0.00 0.00 74 1021.3
20191112030126 68 130 1.0 4.0 0.00 0.00 0.00 73 1021.3
20191112024642 68 306 1.0 6.0 0.00 0.00 0.00 72 1021.3
20191112023208 68 128 0.0 5.0 0.00 0.00 0.00 72 1021.5
20191112021656 68 234 1.0 7.0 0.00 0.00 0.00 70 1021.6
20191112020113 68 81 1.0 6.0 0.00 0.00 0.00 70 1021.6
20191112014640 68 139 0.0 5.0 0.00 0.00 0.00 70 1021.8
20191112013145 68 324 0.0 4.0 0.00 0.00 0.00 70 1022.0
20191112011616 68 127 0.0 6.0 0.00 0.00 0.00 69 1022.0
20191112010114 68 118 0.0 6.0 0.00 0.00 0.00 70 1022.0
20191112004723 68 267 0.0 4.0 0.00 0.00 0.00 71 1022.0
20191112003218 68 120 0.0 6.0 0.00 0.00 0.00 70 1022.0
20191112001625 68 131 0.0 6.0 0.00 0.00 0.00 70 1022.0
20191112000213 68 34 1.0 6.0 0.00 0.00 0.00 70 1022.0
20191111234628 68 131 1.0 4.0 0.00 0.00 0.00 70 1022.1
20191111233153 68 3 0.0 3.0 0.00 0.00 0.00 70 1022.0
20191111231645 68 143 0.0 3.0 0.00 0.00 0.00 68 1022.1
20191111230129 68 124 0.0 4.0 0.00 0.00 0.00 69 1022.0
20191111224618 68 129 0.0 4.0 0.00 0.00 0.00 69 1022.0
20191111223047 68 249 0.0 3.0 0.00 0.00 0.00 70 1022.0
20191111221632 68 280 0.0 9.0 0.00 0.00 0.00 71 1021.9
20191111220106 69 114 1.0 6.0 0.00 0.00 0.00 74 1021.8
20191111214559 68 65 0.0 6.0 0.00 0.01 0.00 73 1021.7
20191111213109 68 116 1.0 6.0 0.00 0.01 0.00 71 1021.7
20191111211652 68 128 0.0 5.0 0.00 0.01 0.00 70 1021.6
20191111210137 69 56 1.0 4.0 0.00 0.01 0.00 70 1021.6
20191111204551 69 148 0.0 7.0 0.00 0.01 0.00 69 1021.6
20191111203129 70 162 1.0 6.0 0.00 0.01 0.00 67 1021.6
20191111201627 70 356 0.0 7.0 0.00 0.01 0.00 66 1021.5
20191111200044 71 112 0.0 8.0 0.00 0.01 0.00 62 1021.4
20191111194555 71 52 0.0 7.0 0.00 0.02 0.00 60 1021.3
20191111193130 71 27 1.0 7.0 0.00 0.02 0.00 56 1021.3
20191111191637 72 86 1.0 8.0 0.00 0.02 0.00 58 1021.3
20191111190103 72 317 1.0 7.0 0.00 0.02 0.00 60 1021.3
20191111184614 71 5 1.0 10.0 0.00 0.06 0.00 62 1021.3
20191111183034 72 144 2.0 9.0 0.00 0.06 0.00 63 1021.3
20191111181623 72 141 0.0 9.0 0.00 0.06 0.00 64 1021.3
20191111180054 72 46 1.0 12.0 0.00 0.06 0.00 63 1021.4
20191111174543 72 84 2.0 9.0 0.00 0.08 0.00 64 1021.4
20191111173032 72 88 2.0 12.0 0.00 0.08 0.00 64 1021.5
20191111171540 72 150 2.0 9.0 0.00 0.08 0.00 65 1021.5
20191111170116 72 150 1.0 7.0 0.00 0.08 0.00 64 1021.6
20191111164535 72 99 3.0 11.0 0.00 0.08 0.00 64 1021.8
20191111163126 73 132 2.0 10.0 0.00 0.08 0.00 65 1021.9
20191111161553 73 98 3.0 10.0 0.00 0.08 0.00 66 1022.0
20191111160022 72 335 1.0 13.0 0.00 0.08 0.00 66 1022.2
20191111154517 72 157 2.0 9.0 0.00 0.08 0.00 68 1022.4
20191111153036 72 178 3.0 12.0 0.00 0.08 0.00 67 1022.5
20191111151541 72 11 2.0 9.0 0.00 0.08 0.00 68 1022.7
20191111150107 72 344 3.0 12.0 0.00 0.08 0.00 68 1022.8
20191111144559 72 64 1.0 9.0 0.00 0.08 0.00 69 1022.9